Location: Passau
(48.5721°N, 13.4363°E)
Time: 12:34:54
(UTC+01:00)

ISS - Pass Details

Date: 10 January 2018
Orbit: 402 x 407 km, 51.6° (Epoch: 19 January)

Event Time Altitude Azimuth Distance (km) Brightness Sun altitude
Exits shadow 04:58:44 17° 75° (ENE) 1,120 -0.9 -28.5°
Drops below altitude 10° 04:59:39 10° 81° (E) 1,468 -0.1 -28.4°
Sets 05:01:46 0° 87° (E) 2,329 1.3 -28.0°
